Location: Little Maitland River
(43.8022°N, 81.1549°W)
Time: 16:50:35
(UTC+00:00)

Cosmos 1092 Rocket - Visible Passes

Search period start: 14 March 2026 00:00
Search period end: 24 March 2026 00:00
Orbit: 955 x 993 km, 82.9° (Epoch: 14 March)

Date Brightness Start Highest point End Pass type
(mag) Time Alt. Az. Time Alt. Az. Time Alt. Az.
14 Mar 5.7 00:57:32 10° SW 01:03:17 36° WNW 01:09:06 10° N visible
14 Mar 5.8 10:06:14 10° N 10:11:53 33° ENE 10:17:26 10° SE visible
15 Mar 6.6 01:23:51 10° WSW 01:28:33 21° WNW 01:33:17 10° NNW visible
15 Mar 4.8 10:30:46 10° N 10:36:59 57° ENE 10:43:05 10° SSE visible
16 Mar 4.4 00:01:11 10° SSW 00:07:29 74° W 00:13:52 10° N visible
16 Mar 7.2 01:51:35 10° W 01:54:01 12° WNW 01:56:27 10° NW visible
16 Mar 6.8 09:11:52 10° NNE 09:15:42 16° ENE 09:19:30 10° ESE visible
16 Mar 4.0 10:55:35 10° N 11:01:53 84° W 11:08:07 10° S visible
17 Mar 5.4 00:26:33 10° SW 00:32:30 43° WNW 00:38:31 10° N visible
17 Mar 6.1 09:35:44 10° NNE 09:41:04 28° ENE 09:46:19 10° SE visible
18 Mar 6.4 00:52:36 10° WSW 00:57:43 25° WNW 01:02:52 10° NNW visible
18 Mar 5.1 10:00:09 10° N 10:06:13 48° ENE 10:12:11 10° SSE visible
19 Mar 7.1 01:19:42 10° W 01:23:06 15° WNW 01:26:31 10° NNW visible
19 Mar 7.0 08:41:45 10° NNE 08:44:48 14° ENE 08:47:48 10° E visible
19 Mar 4.1 10:24:52 10° N 10:31:12 83° E 10:37:24 10° S visible
19 Mar 5.2 23:55:37 10° SSW 00:01:45 51° WNW 00:07:55 10° N visible
20 Mar 6.3 09:05:17 10° NNE 09:10:13 24° ENE 09:15:06 10° ESE visible
20 Mar 4.1 10:49:51 10° NNW 10:56:00 58° W 11:02:02 10° S visible
21 Mar 6.2 00:21:26 10° SW 00:26:53 30° WNW 00:32:22 10° NNW visible
21 Mar 5.4 09:29:33 10° N 09:35:26 40° ENE 09:41:13 10° SE visible
22 Mar 6.9 00:48:08 10° WSW 00:52:13 18° WNW 00:56:20 10° NNW visible
22 Mar 7.0 08:12:04 10° NE 08:13:52 11° ENE 08:15:40 10° ENE visible
22 Mar 4.3 09:54:12 10° N 10:00:28 70° E 10:06:38 10° SSE visible
23 Mar 6.4 08:34:53 10° NNE 08:39:21 20° ENE 08:43:46 10° ESE visible
23 Mar 3.9 10:19:06 10° NNW 10:25:19 69° W 10:31:27 10° S visible
